Location: Cosy Dell
(34.2789°N, 117.4537°W)
Time: 12:24:58
(UTC+00:00)

Cosmos 1076 Rocket - Pass Details

Date: 14 July 2020
Orbit: 589 x 613 km, 82.5° (Epoch: 08 August)

Event Time Altitude Azimuth Distance (km) Brightness Sun altitude
Exits shadow 05:33:35 48° 246° (WSW) 783 4.0 -24.7°
Maximum altitude 05:34:13 53° 278° (W) 735 4.1 -24.8°
Drops below altitude 10° 05:38:23 10° 356° (N) 1,930 6.8 -25.3°
Sets 05:40:38 0° 1° (N) 2,833 7.8 -25.5°
